Regional Weather Roundup
Issued by NWS Little Rock, AR

Home | Current Version | Previous Version | Graphics & Text | Print | Product List | Glossary On
Versions: 1 2 3 4 5 6 7 8 9 10 11 12 13 14 15 16 17 18 19 20 21 22 23 24 25 26 27 28 29 30 31 32
000
ASUS44 KLZK 220012
RWRLZK

WEATHER ROUNDUP FOR ARKANSAS
NATIONAL WEATHER SERVICE LITTLE ROCK AR
700 PM CDT WED JUN 21 2017

NOTE: "FAIR" INDICATES FEW OR NO CLOUDS BELOW 12,000 FEET WITH NO
SIGNIFICANT WEATHER AND/OR OBSTRUCTIONS TO VISIBILITY.

ARZ001-003-010-029-220100-
NORTHWEST ARKANSAS

CITY           SKY/WX    TMP DP  RH WIND       PRES   REMARKS
FAYETTEVILLE   CLOUDY    79  64  60 SE6       29.92S
6HR MIN TEMP:  79; 6HR MAX TEMP:  88;

FORT SMITH     CLOUDY    84  69  60 E7        29.86F HX  88
6HR MIN TEMP:  84; 6HR MAX TEMP:  89;

HARRISON       PTSUNNY   80  68  66 E8        29.95S
6HR MIN TEMP:  80; 6HR MAX TEMP:  89;

BENTONVILLE    MOSUNNY   82  57  42 SE12G17   29.93S
6HR MIN TEMP:  82; 6HR MAX TEMP:  90;

ROGERS         PTSUNNY   82  62  50 SE8       29.93F
6HR MIN TEMP:  82; 6HR MAX TEMP:  88;

SILOAM SPGS    MOSUNNY   79  61  53 SE7       29.90F
6HR MIN TEMP:  79; 6HR MAX TEMP:  90;

HIGHFILL       PTSUNNY   83  60  45 SE13      29.92F
6HR MIN TEMP:  83; 6HR MAX TEMP:  91;

SPRINGDALE     MOSUNNY   82  61  47 E12       29.94S
$$

ARZ004-005-016-220100-
NORTH CENTRAL ARKANSAS

CITY           SKY/WX    TMP DP  RH WIND       PRES   REMARKS
BATESVILLE     CLOUDY    82  66  57 E6        29.91S HX  85
6HR MIN TEMP:  82; 6HR MAX TEMP:  88;

FLIPPIN        CLOUDY   N/A N/A N/A CALM      29.91S
MTN HOME       PTSUNNY   80  69  69 E3        29.94S
6HR MIN TEMP:  80; 6HR MAX TEMP:  86;

$$

ARZ040-041-220100-
WEST CENTRAL ARKANSAS

CITY           SKY/WX    TMP DP  RH WIND       PRES   REMARKS
MENA           CLOUDY    82  70  65 E9        29.88S HX  86
MOUNT IDA      CLOUDY    81  68  64 E3        29.85S
6HR MIN TEMP:  81; 6HR MAX TEMP:  87;

$$

ARZ009-017-025-026-028-220100-
NORTHEAST ARKANSAS

CITY           SKY/WX    TMP DP  RH WIND       PRES   REMARKS
CORNING        LGT RAIN  84  70  61 E9        29.93S HX  88
JONESBORO      CLOUDY    85  71  63 SE9       29.91S HX  90
6HR MIN TEMP:  85; 6HR MAX TEMP:  93;

WALNUT RIDGE   CLOUDY    84  64  51 SE10      29.91S HX  86
6HR MIN TEMP:  84; 6HR MAX TEMP:  90;

BLYTHEVILLE    PTSUNNY   84  70  62 SE12      29.93S HX  88
6HR MIN TEMP:  84; 6HR MAX TEMP:  91;

$$

ARZ022-023-033-042-044-220100-
CENTRAL ARKANSAS

CITY           SKY/WX    TMP DP  RH WIND       PRES   REMARKS
LITTLE ROCK    CLOUDY    81  71  71 E14G20    29.88S HX  85
6HR MIN TEMP:  80; 6HR MAX TEMP:  87;

N LITTLE ROCK    N/A     80  71  73 E13G21    29.88S
6HR MIN TEMP:  80; 6HR MAX TEMP:  87;

JACKSONVILLE   MOSUNNY   81  72  76 E14       29.89S HX  85
6HR MIN TEMP:  81; 6HR MAX TEMP:  88;

CONWAY           N/A     82  72  69 SE14      29.86S HX  87
SEARCY         MOSUNNY   77  75  93 SE7       29.91F
6HR MIN TEMP:  76; 6HR MAX TEMP:  90;

HOT SPRINGS    CLOUDY    81  71  71 E14G20    29.87S HX  85
6HR MIN TEMP:  81; 6HR MAX TEMP:  88;

RUSSELLVILLE   CLOUDY    82  67  60 E7        29.87F
6HR MIN TEMP:  82; 6HR MAX TEMP:  88;

CLINTON        FAIR      82  72  69 CALM      29.90S HX  87
$$

ARZ036-220100-
EAST ARKANSAS

CITY           SKY/WX    TMP DP  RH WIND       PRES   REMARKS
WEST MEMPHIS   CLOUDY    82  71  69 E12       29.90F HX  86
6HR MIN TEMP:  80; 6HR MAX TEMP:  87;

$$

ARZ050-053-066-070-073-220100-
SOUTHWEST ARKANSAS

CITY           SKY/WX    TMP DP  RH WIND       PRES   REMARKS
ARKADELPHIA    MOCLDY    80  72  76 E8        29.84F
6HR MIN TEMP:  80; 6HR MAX TEMP:  86;

CAMDEN         CLOUDY    77  70  78 NE10      29.83F
TEXARKANA      CLOUDY    79  71  76 E8        29.81F
6HR MIN TEMP:  79; 6HR MAX TEMP:  86;

EL DORADO      LGT RAIN  74  73  97 NE13      29.83R FOG
6HR MIN TEMP:  75; 6HR MAX TEMP:  84; 6HR PCP: TRACE;

DE QUEEN       CLOUDY    82  71  69 E9        29.81S HX  86
6HR MIN TEMP:  82; 6HR MAX TEMP:  89;

$$

ARZ056-057-069-220100-
SOUTHEAST ARKANSAS

CITY           SKY/WX    TMP DP  RH WIND       PRES   REMARKS
PINE BLUFF     LGT RAIN  75  72  90 E12       29.88S
6HR MIN TEMP:  75; 6HR MAX TEMP:  85; 6HR PCP: TRACE;

STUTTGART      CLOUDY    81  61  50 E14       29.89S
MONTICELLO     CLOUDY    74  72  93 E9        29.86S FOG
6HR MIN TEMP:  74; 6HR MAX TEMP:  82; 6HR PCP:  0.06;


$$






USA.gov is the U.S. government's official web portal to all federal, state and local government web resources and services.